GFSNW_prec_precacc_030.txt.gz
Total_Precipitation_Accumulation
0.15 0.11 0.10 0.10 0.10 0.10 0.09 0.01 0.01 0.01 0.00 0.01 0.01 0.00 0.00 0.00 0.00 0.00 0.00 0.00 0.00 0.00 0.00 0.00 0.00 0.00 0.00 0.00 0.00 0.00 0.00 0.00 0.00 0.00 0.00 0.00 0.00 0.00 0.00 0.00 0.00 0.00 0.00 0.00
0.21 0.16 0.17 0.16 0.13 0.10 0.04 0.01 0.10 0.10 0.00 0.02 0.01 0.00 0.00 0.00 0.00 0.00 0.00 0.00 0.00 0.00 0.00 0.00 0.00 0.00 0.00 0.00 0.00 0.00 0.00 0.00 0.00 0.00 0.00 0.00 0.00 0.00 0.00 0.00 0.00 0.00 0.01 0.00
0.29 0.19 0.20 0.20 0.15 0.11 0.04 0.02 0.09 0.16 0.05 0.00 0.00 0.00 0.00 0.00 0.00 0.00 0.00 0.00 0.00 0.00 0.00 0.00 0.00 0.00 0.00 0.00 0.00 0.00 0.00 0.00 0.00 0.00 0.00 0.00 0.00 0.00 0.00 0.00 0.00 0.00 0.00 0.00
0.32 0.27 0.19 0.20 0.16 0.14 0.09 0.04 0.01 0.02 0.02 0.00 0.00 0.00 0.00 0.00 0.00 0.00 0.00 0.00 0.00 0.00 0.00 0.00 0.00 0.00 0.00 0.00 0.00 0.00 0.00 0.00 0.00 0.00 0.00 0.00 0.00 0.00 0.00 0.00 0.00 0.00 0.00 0.00
0.32 0.31 0.23 0.19 0.17 0.19 0.15 0.04 0.00 0.00 0.00 0.00 0.00 0.00 0.00 0.00 0.00 0.00 0.00 0.00 0.00 0.00 0.00 0.00 0.00 0.00 0.00 0.00 0.00 0.00 0.00 0.00 0.00 0.00 0.00 0.00 0.00 0.00 0.00 0.00 0.00 0.00 0.00 0.00
0.27 0.25 0.22 0.20 0.20 0.31 0.15 0.03 0.00 0.01 0.02 0.00 0.00 0.00 0.00 0.00 0.00 0.00 0.00 0.00 0.00 0.00 0.00 0.00 0.00 0.00 0.00 0.00 0.00 0.00 0.00 0.00 0.00 0.00 0.00 0.00 0.00 0.00 0.00 0.00 0.00 0.00 0.00 0.00
0.20 0.20 0.15 0.21 0.24 0.25 0.04 0.00 0.03 0.05 0.05 0.00 0.00 0.00 0.00 0.00 0.00 0.00 0.00 0.00 0.00 0.00 0.00 0.00 0.00 0.00 0.00 0.00 0.00 0.00 0.00 0.00 0.00 0.00 0.00 0.00 0.00 0.00 0.00 0.00 0.00 0.00 0.00 0.00
0.14 0.19 0.12 0.17 0.19 0.10 0.03 0.06 0.06 0.06 0.07 0.00 0.00 0.00 0.00 0.00 0.00 0.00 0.00 0.00 0.00 0.00 0.00 0.00 0.00 0.00 0.00 0.00 0.00 0.00 0.00 0.00 0.00 0.00 0.00 0.00 0.00 0.00 0.00 0.00 0.00 0.00 0.00 0.00
0.10 0.17 0.12 0.15 0.11 0.04 0.08 0.13 0.11 0.15 0.04 0.01 0.00 0.00 0.00 0.00 0.00 0.00 0.01 0.00 0.00 0.00 0.00 0.00 0.00 0.00 0.00 0.00 0.00 0.00 0.00 0.00 0.00 0.00 0.00 0.00 0.00 0.00 0.00 0.00 0.00 0.00 0.00 0.00
0.09 0.15 0.11 0.10 0.05 0.01 0.11 0.16 0.25 0.27 0.02 0.00 0.00 0.00 0.00 0.00 0.00 0.00 0.00 0.00 0.00 0.00 0.00 0.02 0.00 0.00 0.00 0.00 0.00 0.00 0.00 0.00 0.00 0.00 0.01 0.00 0.00 0.00 0.00 0.02 0.04 0.00 0.00 0.00
0.12 0.12 0.09 0.04 0.01 0.01 0.15 0.19 0.17 0.16 0.08 0.00 0.00 0.00 0.00 0.00 0.00 0.00 0.00 0.00 0.00 0.00 0.00 0.00 0.00 0.00 0.00 0.00 0.00 0.00 0.00 0.00 0.00 0.00 0.00 0.01 0.00 0.00 0.01 0.02 0.02 0.00 0.00 0.00
0.15 0.09 0.05 0.02 0.01 0.02 0.19 0.22 0.13 0.15 0.13 0.00 0.00 0.00 0.00 0.00 0.00 0.00 0.00 0.00 0.00 0.00 0.00 0.01 0.02 0.00 0.00 0.00 0.00 0.00 0.00 0.00 0.00 0.01 0.00 0.00 0.00 0.02 0.02 0.01 0.01 0.00 0.00 0.00
0.12 0.08 0.05 0.02 0.03 0.04 0.18 0.19 0.17 0.29 0.04 0.02 0.00 0.00 0.00 0.00 0.00 0.00 0.00 0.00 0.00 0.00 0.00 0.00 0.00 0.02 0.00 0.00 0.00 0.00 0.00 0.00 0.00 0.01 0.00 0.00 0.01 0.01 0.01 0.00 0.00 0.00 0.00 0.01
0.09 0.09 0.03 0.02 0.02 0.05 0.22 0.11 0.09 0.08 0.03 0.10 0.02 0.00 0.00 0.00 0.00 0.00 0.00 0.00 0.00 0.00 0.00 0.00 0.02 0.02 0.00 0.00 0.00 0.00 0.00 0.00 0.01 0.01 0.00 0.00 0.01 0.01 0.00 0.00 0.01 0.01 0.01 0.00
0.08 0.07 0.03 0.01 0.02 0.06 0.16 0.07 0.05 0.03 0.07 0.07 0.01 0.00 0.00 0.00 0.00 0.00 0.00 0.00 0.00 0.00 0.00 0.02 0.01 0.00 0.00 0.01 0.00 0.00 0.00 0.00 0.01 0.01 0.01 0.01 0.03 0.02 0.01 0.02 0.02 0.02 0.00 0.00
0.06 0.04 0.02 0.01 0.03 0.07 0.11 0.11 0.04 0.02 0.01 0.04 0.05 0.01 0.00 0.00 0.00 0.00 0.00 0.00 0.00 0.00 0.01 0.00 0.00 0.00 0.01 0.01 0.00 0.00 0.00 0.00 0.00 0.01 0.01 0.03 0.02 0.01 0.00 0.00 0.00 0.00 0.00 0.00
0.05 0.05 0.04 0.06 0.07 0.15 0.16 0.09 0.04 0.01 0.01 0.08 0.06 0.03 0.00 0.00 0.00 0.00 0.01 0.01 0.01 0.02 0.04 0.01 0.00 0.00 0.04 0.02 0.01 0.00 0.00 0.00 0.00 0.00 0.02 0.03 0.01 0.01 0.00 0.00 0.00 0.00 0.00 0.00
0.07 0.08 0.09 0.10 0.09 0.12 0.08 0.02 0.01 0.00 0.03 0.07 0.06 0.02 0.02 0.01 0.01 0.02 0.02 0.07 0.11 0.07 0.04 0.02 0.00 0.01 0.04 0.02 0.00 0.00 0.00 0.00 0.00 0.01 0.02 0.01 0.01 0.00 0.00 0.00 0.00 0.00 0.01 0.04
0.07 0.08 0.07 0.08 0.11 0.16 0.04 0.01 0.01 0.00 0.11 0.10 0.02 0.02 0.03 0.02 0.02 0.02 0.01 0.04 0.04 0.01 0.01 0.01 0.01 0.00 0.00 0.00 0.00 0.00 0.00 0.00 0.01 0.00 0.00 0.00 0.00 0.00 0.00 0.00 0.02 0.06 0.17 0.22
0.23 0.23 0.19 0.15 0.13 0.11 0.02 0.02 0.07 0.03 0.01 0.00 0.01 0.01 0.01 0.02 0.03 0.03 0.02 0.02 0.02 0.00 0.01 0.00 0.00 0.00 0.00 0.00 0.00 0.00 0.00 0.00 0.00 0.00 0.00 0.01 0.01 0.01 0.02 0.05 0.12 0.20 0.16 0.05
0.70 0.62 0.32 0.19 0.18 0.07 0.08 0.09 0.12 0.06 0.00 0.00 0.01 0.00 0.00 0.01 0.03 0.04 0.04 0.04 0.02 0.01 0.00 0.01 0.01 0.00 0.00 0.00 0.00 0.00 0.00 0.00 0.00 0.00 0.00 0.02 0.05 0.14 0.26 0.26 0.15 0.05 0.02 0.01
0.71 0.54 0.31 0.31 0.58 0.42 0.45 0.49 0.19 0.05 0.01 0.01 0.01 0.01 0.01 0.03 0.03 0.06 0.10 0.12 0.11 0.07 0.01 0.04 0.03 0.01 0.01 0.01 0.00 0.00 0.00 0.00 0.00 0.03 0.10 0.18 0.23 0.23 0.11 0.03 0.02 0.02 0.02 0.02
0.59 0.73 0.80 0.85 1.10 1.11 0.82 0.44 0.16 0.04 0.01 0.01 0.01 0.02 0.04 0.06 0.06 0.15 0.26 0.36 0.28 0.11 0.09 0.06 0.06 0.04 0.06 0.07 0.07 0.07 0.07 0.09 0.15 0.21 0.18 0.11 0.05 0.03 0.03 0.03 0.02 0.01 0.01 0.01
0.50 0.80 1.14 1.02 0.98 0.68 0.49 0.22 0.08 0.06 0.05 0.02 0.02 0.05 0.07 0.09 0.11 0.36 0.58 0.61 0.34 0.34 0.19 0.12 0.15 0.24 0.33 0.21 0.13 0.10 0.07 0.05 0.03 0.01 0.01 0.01 0.01 0.01 0.00 0.00 0.00 0.00 0.00 0.00
0.22 0.28 0.49 0.52 0.41 0.31 0.22 0.19 0.17 0.17 0.17 0.24 0.29 0.35 0.32 0.31 0.47 0.51 0.41 0.38 0.34 0.29 0.28 0.35 0.36 0.34 0.30 0.10 0.02 0.01 0.00 0.00 0.00 0.00 0.00 0.00 0.00 0.00 0.00 0.00 0.00 0.00 0.00 0.00
0.17 0.18 0.25 0.27 0.20 0.24 0.26 0.26 0.28 0.29 0.35 0.37 0.41 0.40 0.43 0.49 0.47 0.36 0.33 0.32 0.34 0.35 0.19 0.12 0.11 0.13 0.13 0.12 0.06 0.00 0.00 0.00 0.00 0.00 0.00 0.00 0.00 0.00 0.00 0.00 0.00 0.00 0.00 0.00
0.07 0.12 0.14 0.13 0.14 0.18 0.21 0.20 0.20 0.16 0.19 0.26 0.21 0.21 0.24 0.24 0.27 0.28 0.24 0.28 0.20 0.15 0.13 0.08 0.08 0.09 0.05 0.01 0.01 0.00 0.00 0.00 0.00 0.00 0.00 0.00 0.00 0.00 0.00 0.00 0.00 0.00 0.00 0.00

GFSNW_prec_precacc_033.txt.gz
Total_Precipitation_Accumulation
0.17 0.13 0.13 0.12 0.11 0.11 0.13 0.05 0.02 0.01 0.00 0.01 0.01 0.00 0.00 0.00 0.00 0.00 0.00 0.00 0.00 0.00 0.00 0.00 0.00 0.00 0.00 0.00 0.00 0.00 0.00 0.00 0.01 0.00 0.00 0.00 0.00 0.00 0.01 0.00 0.00 0.00 0.00 0.00
0.24 0.17 0.19 0.20 0.16 0.11 0.07 0.05 0.13 0.14 0.00 0.02 0.01 0.00 0.00 0.00 0.00 0.00 0.00 0.00 0.00 0.00 0.00 0.00 0.00 0.00 0.00 0.00 0.00 0.00 0.00 0.00 0.00 0.00 0.00 0.01 0.00 0.00 0.00 0.00 0.00 0.00 0.01 0.00
0.32 0.22 0.21 0.23 0.19 0.13 0.09 0.05 0.13 0.27 0.09 0.00 0.00 0.00 0.00 0.00 0.00 0.00 0.00 0.00 0.00 0.00 0.00 0.00 0.00 0.00 0.00 0.00 0.00 0.00 0.00 0.00 0.00 0.00 0.00 0.00 0.00 0.00 0.00 0.00 0.00 0.00 0.00 0.00
0.34 0.30 0.21 0.21 0.20 0.16 0.22 0.10 0.01 0.04 0.04 0.00 0.00 0.00 0.00 0.00 0.00 0.00 0.00 0.00 0.00 0.00 0.00 0.00 0.00 0.00 0.00 0.00 0.00 0.00 0.00 0.00 0.00 0.00 0.00 0.00 0.00 0.00 0.00 0.00 0.00 0.00 0.00 0.00
0.34 0.34 0.27 0.21 0.22 0.25 0.35 0.10 0.00 0.01 0.01 0.00 0.00 0.00 0.00 0.00 0.00 0.00 0.00 0.00 0.00 0.00 0.00 0.00 0.00 0.00 0.00 0.00 0.00 0.00 0.00 0.00 0.00 0.00 0.00 0.00 0.00 0.00 0.00 0.00 0.00 0.00 0.00 0.00
0.30 0.28 0.26 0.22 0.25 0.45 0.37 0.06 0.00 0.04 0.03 0.00 0.00 0.00 0.00 0.00 0.00 0.00 0.00 0.00 0.00 0.00 0.00 0.00 0.00 0.00 0.00 0.00 0.00 0.00 0.00 0.00 0.00 0.00 0.00 0.00 0.00 0.00 0.00 0.00 0.00 0.00 0.00 0.00
0.25 0.22 0.18 0.23 0.29 0.34 0.11 0.01 0.05 0.13 0.09 0.01 0.00 0.00 0.00 0.00 0.00 0.00 0.00 0.00 0.00 0.00 0.00 0.00 0.00 0.00 0.00 0.00 0.01 0.00 0.00 0.00 0.00 0.00 0.00 0.00 0.00 0.00 0.00 0.00 0.00 0.00 0.00 0.00
0.22 0.21 0.14 0.18 0.20 0.16 0.06 0.06 0.11 0.17 0.13 0.02 0.00 0.00 0.00 0.00 0.00 0.00 0.00 0.00 0.00 0.00 0.00 0.01 0.00 0.00 0.00 0.00 0.00 0.00 0.01 0.00 0.00 0.00 0.00 0.00 0.00 0.00 0.00 0.00 0.00 0.00 0.00 0.00
0.22 0.21 0.15 0.16 0.12 0.07 0.10 0.13 0.17 0.28 0.15 0.03 0.00 0.00 0.00 0.00 0.01 0.01 0.03 0.02 0.01 0.00 0.00 0.00 0.00 0.00 0.00 0.00 0.00 0.00 0.00 0.00 0.00 0.00 0.00 0.00 0.00 0.00 0.00 0.00 0.00 0.00 0.00 0.00
0.18 0.19 0.13 0.10 0.06 0.02 0.13 0.18 0.31 0.44 0.17 0.01 0.00 0.00 0.00 0.01 0.01 0.01 0.04 0.06 0.03 0.00 0.02 0.02 0.00 0.00 0.00 0.00 0.00 0.00 0.00 0.00 0.00 0.00 0.01 0.00 0.00 0.00 0.00 0.02 0.04 0.00 0.00 0.00
0.14 0.13 0.09 0.05 0.01 0.01 0.16 0.22 0.26 0.41 0.18 0.01 0.00 0.00 0.00 0.00 0.00 0.01 0.00 0.06 0.01 0.00 0.01 0.01 0.00 0.00 0.00 0.00 0.00 0.00 0.00 0.00 0.00 0.00 0.00 0.01 0.00 0.00 0.01 0.02 0.02 0.00 0.00 0.00
0.15 0.10 0.05 0.02 0.01 0.02 0.20 0.24 0.17 0.35 0.44 0.08 0.02 0.00 0.00 0.00 0.00 0.00 0.00 0.01 0.00 0.00 0.00 0.01 0.02 0.00 0.00 0.00 0.00 0.00 0.00 0.00 0.00 0.01 0.00 0.00 0.00 0.02 0.02 0.01 0.01 0.00 0.00 0.00
0.12 0.09 0.05 0.02 0.03 0.04 0.19 0.21 0.23 0.82 0.61 0.26 0.06 0.01 0.00 0.00 0.00 0.00 0.01 0.00 0.00 0.00 0.00 0.00 0.01 0.02 0.00 0.00 0.00 0.00 0.00 0.00 0.00 0.01 0.00 0.00 0.01 0.01 0.01 0.00 0.00 0.00 0.00 0.01
0.11 0.10 0.04 0.03 0.03 0.06 0.24 0.17 0.50 1.31 0.85 0.68 0.20 0.01 0.00 0.00 0.00 0.00 0.00 0.00 0.00 0.00 0.00 0.00 0.02 0.02 0.00 0.00 0.00 0.00 0.00 0.00 0.01 0.01 0.00 0.00 0.01 0.01 0.00 0.00 0.01 0.01 0.01 0.00
0.14 0.10 0.04 0.02 0.03 0.09 0.24 0.20 0.63 0.89 0.68 0.57 0.15 0.01 0.00 0.01 0.01 0.00 0.00 0.00 0.00 0.00 0.00 0.02 0.01 0.00 0.00 0.01 0.00 0.00 0.00 0.00 0.01 0.01 0.01 0.01 0.03 0.02 0.01 0.02 0.02 0.02 0.00 0.00
0.13 0.07 0.03 0.02 0.05 0.24 0.35 0.56 0.41 0.53 0.31 0.22 0.09 0.02 0.01 0.00 0.00 0.00 0.00 0.00 0.00 0.00 0.01 0.00 0.00 0.00 0.01 0.01 0.00 0.00 0.00 0.00 0.00 0.01 0.01 0.03 0.02 0.01 0.00 0.00 0.00 0.00 0.00 0.00
0.10 0.08 0.05 0.08 0.12 0.45 0.49 0.61 0.26 0.18 0.14 0.13 0.07 0.04 0.01 0.01 0.00 0.00 0.01 0.01 0.01 0.02 0.04 0.01 0.00 0.00 0.04 0.02 0.01 0.00 0.00 0.00 0.00 0.00 0.02 0.03 0.01 0.01 0.00 0.00 0.00 0.00 0.00 0.00
0.11 0.10 0.11 0.14 0.25 0.65 0.29 0.19 0.05 0.04 0.06 0.08 0.08 0.03 0.03 0.01 0.02 0.02 0.02 0.08 0.11 0.07 0.04 0.02 0.00 0.01 0.04 0.02 0.00 0.00 0.00 0.00 0.00 0.01 0.02 0.01 0.01 0.00 0.00 0.00 0.00 0.00 0.01 0.04
0.09 0.09 0.12 0.26 0.53 0.73 0.14 0.04 0.01 0.01 0.11 0.10 0.03 0.03 0.04 0.02 0.02 0.02 0.01 0.04 0.04 0.01 0.01 0.01 0.01 0.00 0.00 0.00 0.00 0.00 0.00 0.00 0.01 0.00 0.00 0.00 0.00 0.00 0.00 0.00 0.02 0.06 0.17 0.22
0.25 0.29 0.33 0.42 0.41 0.23 0.02 0.03 0.07 0.03 0.01 0.00 0.01 0.01 0.01 0.02 0.03 0.03 0.02 0.02 0.02 0.01 0.01 0.00 0.00 0.00 0.00 0.00 0.00 0.00 0.00 0.00 0.00 0.00 0.00 0.01 0.01 0.01 0.02 0.05 0.12 0.20 0.16 0.05
0.75 0.70 0.44 0.39 0.34 0.08 0.08 0.09 0.12 0.06 0.01 0.00 0.01 0.01 0.01 0.01 0.04 0.07 0.07 0.07 0.05 0.02 0.01 0.01 0.01 0.00 0.01 0.00 0.00 0.00 0.00 0.00 0.00 0.00 0.00 0.02 0.05 0.14 0.26 0.26 0.15 0.05 0.02 0.01
0.75 0.56 0.36 0.51 0.65 0.45 0.45 0.49 0.19 0.05 0.01 0.01 0.01 0.01 0.01 0.03 0.04 0.08 0.11 0.13 0.11 0.07 0.01 0.05 0.03 0.01 0.01 0.01 0.00 0.00 0.00 0.00 0.00 0.03 0.10 0.18 0.23 0.23 0.11 0.03 0.02 0.02 0.02 0.02
0.59 0.74 0.84 0.96 1.12 1.18 0.82 0.44 0.16 0.04 0.01 0.01 0.01 0.02 0.04 0.06 0.06 0.15 0.26 0.37 0.28 0.11 0.09 0.06 0.06 0.04 0.06 0.07 0.07 0.07 0.07 0.09 0.15 0.21 0.18 0.11 0.05 0.03 0.03 0.03 0.02 0.01 0.01 0.01
0.50 0.80 1.15 1.05 1.01 0.69 0.49 0.22 0.08 0.06 0.05 0.03 0.02 0.05 0.07 0.09 0.11 0.36 0.58 0.61 0.34 0.34 0.19 0.12 0.15 0.24 0.33 0.21 0.13 0.10 0.07 0.05 0.03 0.01 0.01 0.01 0.01 0.01 0.00 0.00 0.00 0.00 0.00 0.00
0.22 0.29 0.51 0.53 0.42 0.31 0.22 0.19 0.17 0.17 0.17 0.24 0.29 0.35 0.32 0.31 0.47 0.51 0.41 0.38 0.34 0.29 0.28 0.35 0.36 0.34 0.30 0.10 0.02 0.01 0.00 0.00 0.00 0.00 0.00 0.00 0.00 0.00 0.00 0.00 0.00 0.00 0.00 0.00
0.20 0.23 0.31 0.30 0.22 0.24 0.27 0.26 0.28 0.29 0.35 0.37 0.41 0.40 0.43 0.49 0.47 0.36 0.33 0.32 0.35 0.36 0.19 0.13 0.11 0.13 0.13 0.12 0.06 0.00 0.00 0.00 0.00 0.00 0.00 0.00 0.00 0.00 0.00 0.00 0.00 0.00 0.00 0.00
0.16 0.23 0.23 0.20 0.20 0.24 0.26 0.23 0.23 0.19 0.22 0.27 0.21 0.22 0.24 0.25 0.28 0.30 0.25 0.30 0.21 0.15 0.14 0.09 0.10 0.12 0.06 0.01 0.01 0.00 0.00 0.00 0.00 0.00 0.00 0.00 0.00 0.00 0.00 0.00 0.00 0.00 0.00 0.00

GFSNW_prec_precacc_036.txt.gz
Total_Precipitation_Accumulation
0.18 0.14 0.15 0.17 0.16 0.15 0.17 0.07 0.03 0.01 0.00 0.02 0.01 0.00 0.00 0.00 0.00 0.00 0.00 0.00 0.00 0.00 0.00 0.00 0.00 0.00 0.00 0.00 0.00 0.00 0.00 0.00 0.01 0.00 0.00 0.00 0.00 0.00 0.01 0.00 0.00 0.00 0.00 0.00
0.25 0.19 0.21 0.24 0.22 0.15 0.09 0.07 0.16 0.15 0.00 0.02 0.01 0.00 0.00 0.00 0.00 0.00 0.00 0.00 0.00 0.00 0.00 0.00 0.00 0.00 0.00 0.00 0.00 0.00 0.00 0.00 0.00 0.00 0.00 0.01 0.00 0.00 0.00 0.00 0.00 0.00 0.01 0.00
0.34 0.25 0.23 0.25 0.26 0.17 0.12 0.08 0.17 0.32 0.11 0.00 0.00 0.00 0.00 0.00 0.00 0.00 0.00 0.00 0.00 0.00 0.00 0.00 0.00 0.00 0.00 0.00 0.00 0.00 0.00 0.00 0.00 0.00 0.00 0.00 0.00 0.00 0.00 0.00 0.00 0.00 0.00 0.00
0.37 0.34 0.24 0.23 0.26 0.23 0.29 0.15 0.02 0.05 0.05 0.00 0.00 0.00 0.00 0.00 0.00 0.00 0.00 0.00 0.00 0.00 0.00 0.00 0.00 0.00 0.00 0.00 0.00 0.00 0.00 0.00 0.00 0.00 0.00 0.00 0.00 0.00 0.00 0.00 0.00 0.00 0.00 0.00
0.35 0.38 0.31 0.23 0.30 0.38 0.44 0.16 0.01 0.01 0.01 0.00 0.00 0.00 0.00 0.00 0.00 0.00 0.00 0.00 0.00 0.00 0.00 0.00 0.00 0.00 0.00 0.00 0.00 0.00 0.00 0.00 0.00 0.00 0.00 0.00 0.00 0.00 0.00 0.00 0.00 0.00 0.00 0.00
0.31 0.30 0.30 0.24 0.32 0.67 0.47 0.10 0.00 0.05 0.04 0.01 0.01 0.00 0.00 0.00 0.00 0.00 0.00 0.00 0.00 0.00 0.00 0.00 0.00 0.00 0.00 0.00 0.00 0.00 0.00 0.00 0.00 0.00 0.00 0.00 0.00 0.00 0.00 0.00 0.00 0.00 0.00 0.00
0.26 0.23 0.20 0.25 0.35 0.57 0.20 0.03 0.05 0.16 0.10 0.02 0.00 0.00 0.00 0.00 0.00 0.00 0.00 0.00 0.00 0.00 0.00 0.00 0.00 0.00 0.00 0.01 0.01 0.00 0.00 0.00 0.00 0.00 0.00 0.00 0.00 0.00 0.00 0.00 0.00 0.00 0.00 0.00
0.23 0.21 0.16 0.19 0.23 0.27 0.15 0.07 0.14 0.22 0.15 0.02 0.01 0.00 0.00 0.00 0.00 0.00 0.00 0.00 0.00 0.00 0.00 0.02 0.02 0.01 0.01 0.01 0.01 0.01 0.01 0.00 0.00 0.00 0.00 0.00 0.00 0.00 0.00 0.00 0.00 0.00 0.00 0.00
0.23 0.22 0.19 0.18 0.13 0.10 0.14 0.16 0.26 0.41 0.20 0.04 0.00 0.00 0.00 0.00 0.01 0.02 0.04 0.03 0.01 0.00 0.03 0.01 0.01 0.00 0.00 0.00 0.00 0.00 0.00 0.00 0.00 0.00 0.00 0.00 0.00 0.00 0.00 0.00 0.00 0.00 0.00 0.00
0.26 0.22 0.20 0.15 0.07 0.04 0.14 0.26 0.43 0.61 0.24 0.07 0.02 0.00 0.00 0.01 0.02 0.03 0.04 0.07 0.06 0.01 0.04 0.03 0.00 0.00 0.00 0.00 0.00 0.00 0.00 0.00 0.00 0.00 0.01 0.00 0.00 0.00 0.00 0.02 0.04 0.00 0.00 0.00
0.30 0.20 0.17 0.09 0.04 0.03 0.17 0.29 0.38 0.54 0.29 0.06 0.05 0.02 0.00 0.01 0.01 0.01 0.01 0.09 0.06 0.06 0.06 0.02 0.00 0.00 0.00 0.00 0.00 0.00 0.00 0.00 0.00 0.00 0.00 0.01 0.00 0.00 0.01 0.02 0.02 0.00 0.00 0.00
0.29 0.17 0.14 0.07 0.03 0.04 0.21 0.28 0.23 0.41 0.53 0.17 0.06 0.03 0.00 0.00 0.00 0.01 0.01 0.02 0.01 0.01 0.02 0.01 0.02 0.00 0.00 0.00 0.00 0.00 0.00 0.00 0.00 0.01 0.00 0.00 0.00 0.02 0.02 0.01 0.01 0.00 0.00 0.00
0.20 0.16 0.13 0.07 0.06 0.06 0.19 0.23 0.27 0.86 0.65 0.35 0.11 0.03 0.01 0.01 0.01 0.02 0.03 0.00 0.00 0.00 0.00 0.00 0.01 0.02 0.00 0.00 0.00 0.00 0.00 0.00 0.00 0.01 0.00 0.00 0.01 0.01 0.01 0.00 0.00 0.00 0.00 0.01
0.14 0.12 0.08 0.06 0.04 0.07 0.25 0.20 0.55 1.37 0.92 0.71 0.25 0.03 0.03 0.02 0.02 0.00 0.01 0.01 0.00 0.00 0.00 0.00 0.02 0.02 0.00 0.00 0.00 0.00 0.00 0.00 0.01 0.01 0.00 0.00 0.01 0.01 0.00 0.00 0.01 0.01 0.01 0.00
0.15 0.10 0.04 0.03 0.03 0.10 0.28 0.25 0.69 0.98 0.89 0.78 0.50 0.08 0.03 0.05 0.07 0.05 0.01 0.00 0.00 0.00 0.01 0.02 0.01 0.00 0.00 0.01 0.00 0.00 0.00 0.00 0.01 0.01 0.01 0.01 0.03 0.02 0.01 0.02 0.02 0.02 0.00 0.00
0.13 0.07 0.03 0.02 0.06 0.28 0.44 0.67 0.50 0.68 0.57 0.67 0.67 0.41 0.07 0.06 0.05 0.21 0.08 0.04 0.01 0.01 0.01 0.01 0.00 0.00 0.01 0.01 0.00 0.00 0.00 0.00 0.00 0.01 0.01 0.03 0.02 0.01 0.00 0.00 0.00 0.00 0.00 0.00
0.10 0.08 0.05 0.09 0.16 0.52 0.58 0.78 0.59 0.44 0.51 0.57 0.62 0.51 0.27 0.07 0.06 0.12 0.10 0.12 0.20 0.09 0.06 0.02 0.00 0.00 0.04 0.02 0.01 0.00 0.00 0.00 0.00 0.00 0.02 0.03 0.01 0.01 0.00 0.00 0.00 0.00 0.00 0.00
0.12 0.12 0.13 0.17 0.37 0.75 0.45 0.48 0.38 0.47 0.46 0.37 0.41 0.34 0.22 0.04 0.04 0.04 0.05 0.12 0.28 0.28 0.07 0.03 0.00 0.01 0.04 0.02 0.00 0.00 0.00 0.00 0.00 0.01 0.02 0.01 0.01 0.00 0.00 0.00 0.00 0.00 0.01 0.04
0.16 0.17 0.20 0.43 0.82 0.94 0.57 0.39 0.46 0.50 0.47 0.36 0.15 0.12 0.08 0.03 0.02 0.02 0.02 0.06 0.05 0.03 0.02 0.01 0.01 0.00 0.00 0.00 0.00 0.00 0.00 0.00 0.01 0.00 0.00 0.00 0.00 0.00 0.00 0.00 0.02 0.06 0.17 0.22
0.38 0.50 0.66 0.89 0.81 0.68 0.58 0.41 0.29 0.11 0.06 0.02 0.01 0.02 0.02 0.02 0.03 0.03 0.03 0.02 0.02 0.01 0.01 0.01 0.00 0.00 0.00 0.00 0.00 0.00 0.00 0.00 0.00 0.00 0.00 0.01 0.01 0.01 0.02 0.05 0.12 0.20 0.16 0.05
1.03 1.06 0.89 0.77 0.68 0.49 0.45 0.25 0.15 0.06 0.01 0.00 0.01 0.01 0.01 0.01 0.04 0.07 0.07 0.08 0.05 0.02 0.01 0.02 0.01 0.00 0.01 0.01 0.01 0.01 0.01 0.00 0.00 0.00 0.00 0.02 0.05 0.14 0.26 0.26 0.15 0.05 0.02 0.01
0.95 0.75 0.62 0.72 0.78 0.54 0.49 0.49 0.19 0.05 0.01 0.01 0.01 0.01 0.02 0.03 0.04 0.09 0.12 0.15 0.12 0.08 0.01 0.05 0.03 0.01 0.02 0.03 0.02 0.01 0.01 0.00 0.00 0.03 0.10 0.18 0.23 0.23 0.11 0.03 0.02 0.02 0.02 0.02
0.61 0.81 0.92 1.08 1.15 1.18 0.83 0.44 0.16 0.04 0.01 0.01 0.01 0.02 0.04 0.06 0.06 0.16 0.28 0.38 0.28 0.11 0.09 0.06 0.06 0.05 0.07 0.08 0.07 0.07 0.07 0.09 0.15 0.21 0.18 0.11 0.05 0.03 0.03 0.03 0.02 0.01 0.01 0.01
0.51 0.82 1.17 1.18 1.08 0.69 0.50 0.22 0.08 0.07 0.06 0.03 0.02 0.06 0.07 0.10 0.13 0.36 0.59 0.62 0.34 0.34 0.19 0.12 0.15 0.24 0.33 0.21 0.13 0.10 0.07 0.05 0.03 0.01 0.01 0.01 0.01 0.01 0.00 0.00 0.00 0.00 0.00 0.00
0.23 0.30 0.55 0.55 0.44 0.32 0.23 0.19 0.18 0.18 0.18 0.24 0.29 0.35 0.32 0.31 0.47 0.51 0.41 0.38 0.34 0.29 0.28 0.35 0.36 0.34 0.30 0.10 0.02 0.01 0.00 0.00 0.00 0.00 0.00 0.00 0.00 0.00 0.00 0.00 0.00 0.00 0.00 0.00
0.20 0.24 0.32 0.31 0.22 0.25 0.28 0.27 0.28 0.29 0.36 0.37 0.41 0.40 0.43 0.49 0.47 0.36 0.34 0.32 0.35 0.36 0.19 0.13 0.11 0.13 0.13 0.12 0.06 0.00 0.00 0.00 0.01 0.00 0.00 0.00 0.00 0.00 0.00 0.00 0.00 0.00 0.00 0.00
0.17 0.27 0.28 0.24 0.22 0.27 0.29 0.25 0.24 0.20 0.23 0.28 0.21 0.23 0.25 0.26 0.29 0.31 0.28 0.33 0.24 0.18 0.15 0.09 0.10 0.12 0.06 0.03 0.02 0.01 0.02 0.03 0.01 0.00 0.00 0.00 0.00 0.00 0.00 0.00 0.00 0.00 0.00 0.00

GFSNW_prec_precacc_042.txt.gz
Total_Precipitation_Accumulation
0.22 0.16 0.21 0.27 0.24 0.19 0.24 0.13 0.05 0.02 0.02 0.10 0.03 0.01 0.00 0.00 0.00 0.00 0.00 0.00 0.00 0.00 0.00 0.00 0.00 0.00 0.00 0.00 0.00 0.00 0.00 0.00 0.01 0.00 0.00 0.00 0.00 0.00 0.01 0.00 0.00 0.00 0.00 0.00
0.31 0.24 0.25 0.33 0.32 0.20 0.13 0.12 0.18 0.21 0.02 0.04 0.01 0.00 0.00 0.00 0.00 0.00 0.00 0.00 0.00 0.00 0.00 0.00 0.00 0.00 0.00 0.00 0.00 0.00 0.00 0.00 0.00 0.00 0.00 0.01 0.00 0.00 0.00 0.00 0.00 0.00 0.01 0.00
0.40 0.31 0.28 0.31 0.36 0.24 0.18 0.14 0.23 0.47 0.22 0.00 0.00 0.00 0.00 0.00 0.00 0.00 0.00 0.00 0.00 0.00 0.00 0.00 0.00 0.00 0.00 0.00 0.00 0.00 0.00 0.00 0.00 0.00 0.00 0.00 0.00 0.00 0.00 0.00 0.00 0.00 0.00 0.00
0.44 0.39 0.30 0.27 0.33 0.33 0.45 0.24 0.05 0.08 0.10 0.01 0.00 0.00 0.00 0.00 0.00 0.00 0.00 0.00 0.00 0.00 0.00 0.00 0.00 0.00 0.00 0.00 0.00 0.00 0.00 0.00 0.00 0.00 0.00 0.00 0.00 0.00 0.00 0.00 0.00 0.00 0.00 0.00
0.43 0.44 0.35 0.28 0.33 0.57 0.85 0.25 0.03 0.02 0.02 0.00 0.01 0.00 0.00 0.00 0.00 0.00 0.00 0.00 0.00 0.00 0.00 0.00 0.00 0.00 0.00 0.00 0.00 0.00 0.00 0.00 0.00 0.00 0.00 0.00 0.00 0.00 0.00 0.00 0.00 0.00 0.00 0.00
0.39 0.36 0.34 0.29 0.35 0.96 1.19 0.26 0.01 0.07 0.05 0.01 0.01 0.00 0.00 0.00 0.00 0.00 0.00 0.00 0.00 0.00 0.00 0.00 0.00 0.00 0.00 0.00 0.00 0.00 0.00 0.00 0.00 0.00 0.00 0.00 0.00 0.00 0.00 0.00 0.00 0.00 0.00 0.00
0.32 0.28 0.23 0.29 0.38 0.75 0.68 0.18 0.07 0.22 0.11 0.03 0.00 0.00 0.00 0.00 0.00 0.00 0.00 0.00 0.00 0.00 0.00 0.01 0.00 0.00 0.00 0.01 0.01 0.00 0.00 0.00 0.00 0.00 0.00 0.00 0.00 0.00 0.00 0.00 0.00 0.00 0.00 0.00
0.28 0.26 0.18 0.21 0.25 0.32 0.43 0.17 0.18 0.32 0.21 0.03 0.01 0.00 0.00 0.00 0.00 0.00 0.00 0.00 0.00 0.01 0.01 0.03 0.03 0.02 0.02 0.01 0.01 0.01 0.01 0.00 0.00 0.00 0.00 0.00 0.00 0.00 0.00 0.00 0.00 0.00 0.00 0.00
0.27 0.26 0.22 0.19 0.14 0.15 0.32 0.28 0.37 0.50 0.37 0.06 0.01 0.01 0.00 0.00 0.01 0.02 0.04 0.03 0.01 0.01 0.05 0.03 0.02 0.02 0.01 0.00 0.00 0.00 0.00 0.01 0.00 0.00 0.00 0.00 0.00 0.00 0.00 0.00 0.00 0.00 0.00 0.00
0.29 0.25 0.21 0.15 0.08 0.08 0.29 0.38 0.66 0.74 0.45 0.12 0.04 0.01 0.00 0.01 0.02 0.03 0.04 0.07 0.06 0.03 0.07 0.05 0.01 0.01 0.01 0.00 0.00 0.00 0.00 0.00 0.00 0.00 0.01 0.00 0.00 0.00 0.00 0.02 0.04 0.00 0.00 0.00
0.33 0.23 0.18 0.10 0.05 0.06 0.28 0.37 0.61 0.74 0.45 0.10 0.10 0.06 0.02 0.01 0.01 0.01 0.01 0.10 0.07 0.09 0.10 0.04 0.02 0.01 0.00 0.00 0.00 0.00 0.00 0.00 0.00 0.00 0.00 0.01 0.00 0.00 0.01 0.02 0.02 0.00 0.00 0.00
0.31 0.20 0.15 0.08 0.06 0.08 0.28 0.33 0.47 0.64 0.70 0.23 0.09 0.04 0.01 0.00 0.00 0.01 0.01 0.02 0.01 0.02 0.04 0.02 0.04 0.01 0.00 0.00 0.00 0.00 0.00 0.00 0.00 0.01 0.00 0.00 0.00 0.02 0.02 0.01 0.01 0.00 0.00 0.00
0.26 0.20 0.15 0.10 0.10 0.14 0.27 0.29 0.42 1.15 0.84 0.46 0.14 0.04 0.05 0.02 0.01 0.02 0.03 0.00 0.01 0.03 0.03 0.05 0.04 0.03 0.00 0.00 0.00 0.00 0.00 0.00 0.00 0.01 0.00 0.00 0.01 0.01 0.01 0.00 0.00 0.00 0.00 0.01
0.27 0.21 0.16 0.12 0.11 0.19 0.32 0.26 0.72 1.59 1.13 0.93 0.42 0.07 0.09 0.06 0.03 0.00 0.01 0.02 0.03 0.05 0.06 0.07 0.07 0.04 0.01 0.00 0.00 0.00 0.00 0.00 0.01 0.01 0.00 0.00 0.01 0.01 0.00 0.00 0.01 0.01 0.01 0.00
0.29 0.21 0.15 0.12 0.14 0.26 0.35 0.30 0.84 1.15 1.05 0.95 0.71 0.16 0.07 0.13 0.13 0.08 0.03 0.01 0.00 0.02 0.09 0.07 0.03 0.02 0.01 0.01 0.00 0.00 0.00 0.00 0.01 0.01 0.01 0.01 0.03 0.02 0.01 0.02 0.02 0.02 0.00 0.00
0.27 0.19 0.14 0.12 0.20 0.45 0.52 0.81 0.68 0.79 0.68 0.89 0.82 0.48 0.10 0.15 0.20 0.35 0.14 0.06 0.04 0.05 0.06 0.04 0.01 0.01 0.03 0.01 0.00 0.00 0.00 0.00 0.00 0.01 0.01 0.03 0.02 0.01 0.00 0.00 0.00 0.00 0.00 0.00
0.25 0.22 0.16 0.20 0.29 0.61 0.64 0.89 0.67 0.50 0.61 0.77 0.74 0.56 0.30 0.24 0.26 0.33 0.39 0.22 0.27 0.15 0.10 0.04 0.01 0.01 0.05 0.02 0.01 0.00 0.00 0.00 0.00 0.00 0.02 0.03 0.01 0.01 0.00 0.00 0.00 0.00 0.00 0.00
0.29 0.28 0.23 0.29 0.47 0.80 0.47 0.58 0.54 0.52 0.56 0.62 0.61 0.43 0.43 0.25 0.54 0.25 0.33 0.30 0.43 0.42 0.19 0.04 0.01 0.03 0.06 0.03 0.00 0.00 0.00 0.00 0.00 0.01 0.02 0.01 0.01 0.00 0.00 0.00 0.00 0.00 0.01 0.04
0.29 0.31 0.39 0.62 0.94 0.99 0.61 0.62 0.82 0.74 0.61 0.61 0.30 0.22 0.32 0.33 0.36 0.30 0.21 0.27 0.22 0.24 0.34 0.29 0.13 0.03 0.02 0.01 0.00 0.00 0.00 0.00 0.01 0.00 0.00 0.00 0.00 0.00 0.00 0.00 0.02 0.06 0.17 0.22
0.46 0.62 0.78 1.00 0.94 0.75 0.82 0.84 0.87 0.61 0.31 0.21 0.20 0.13 0.13 0.33 0.33 0.34 0.33 0.32 0.21 0.16 0.21 0.24 0.29 0.21 0.09 0.02 0.00 0.00 0.00 0.00 0.00 0.00 0.01 0.01 0.01 0.01 0.03 0.06 0.13 0.21 0.17 0.05
1.12 1.19 1.11 1.05 0.94 0.79 0.85 0.76 0.67 0.44 0.15 0.06 0.07 0.06 0.08 0.12 0.45 0.44 0.31 0.33 0.37 0.18 0.13 0.18 0.24 0.18 0.09 0.05 0.04 0.04 0.04 0.02 0.01 0.01 0.02 0.03 0.06 0.14 0.27 0.28 0.19 0.09 0.04 0.02
1.24 1.18 1.06 1.10 1.17 0.92 0.84 0.83 0.45 0.19 0.07 0.03 0.04 0.04 0.06 0.12 0.21 0.52 0.45 0.31 0.29 0.22 0.09 0.12 0.08 0.06 0.09 0.12 0.07 0.03 0.02 0.01 0.01 0.04 0.11 0.18 0.24 0.25 0.14 0.07 0.06 0.03 0.02 0.02
1.20 1.17 1.34 1.44 1.45 1.41 1.05 0.58 0.23 0.10 0.03 0.04 0.04 0.03 0.05 0.09 0.13 0.31 0.51 0.56 0.37 0.16 0.13 0.10 0.07 0.06 0.08 0.09 0.08 0.07 0.07 0.09 0.15 0.22 0.19 0.13 0.09 0.10 0.09 0.08 0.04 0.02 0.01 0.01
0.92 1.23 1.46 1.41 1.25 0.80 0.58 0.26 0.11 0.10 0.08 0.05 0.04 0.06 0.08 0.11 0.16 0.38 0.63 0.68 0.38 0.35 0.19 0.13 0.16 0.24 0.33 0.21 0.13 0.10 0.07 0.06 0.07 0.07 0.06 0.05 0.03 0.01 0.00 0.00 0.00 0.00 0.00 0.00
0.55 0.53 0.73 0.70 0.59 0.44 0.31 0.23 0.19 0.20 0.20 0.25 0.30 0.36 0.33 0.32 0.52 0.55 0.43 0.39 0.36 0.31 0.30 0.37 0.37 0.36 0.31 0.12 0.03 0.03 0.02 0.02 0.02 0.01 0.01 0.01 0.00 0.00 0.00 0.00 0.00 0.00 0.00 0.00
0.25 0.39 0.54 0.45 0.31 0.31 0.32 0.31 0.31 0.32 0.37 0.38 0.41 0.41 0.44 0.54 0.48 0.38 0.36 0.33 0.38 0.41 0.23 0.16 0.12 0.14 0.14 0.13 0.08 0.02 0.03 0.03 0.03 0.03 0.03 0.01 0.00 0.00 0.00 0.00 0.00 0.00 0.00 0.00
0.19 0.39 0.44 0.33 0.29 0.35 0.37 0.31 0.30 0.23 0.24 0.29 0.22 0.25 0.30 0.31 0.32 0.35 0.32 0.39 0.32 0.26 0.22 0.15 0.14 0.16 0.11 0.09 0.11 0.11 0.10 0.07 0.05 0.04 0.02 0.01 0.01 0.00 0.00 0.00 0.00 0.00 0.00 0.00

GFSNW_prec_precacc_045.txt.gz
Total_Precipitation_Accumulation
0.27 0.19 0.22 0.27 0.28 0.27 0.34 0.16 0.08 0.02 0.03 0.16 0.06 0.01 0.00 0.00 0.00 0.00 0.00 0.00 0.00 0.00 0.00 0.00 0.00 0.00 0.00 0.00 0.00 0.00 0.00 0.00 0.01 0.00 0.00 0.00 0.00 0.00 0.01 0.00 0.00 0.00 0.00 0.00
0.39 0.30 0.28 0.34 0.37 0.32 0.27 0.17 0.21 0.30 0.06 0.06 0.02 0.00 0.00 0.00 0.00 0.00 0.00 0.00 0.00 0.00 0.00 0.00 0.00 0.00 0.00 0.00 0.00 0.00 0.00 0.00 0.00 0.00 0.00 0.01 0.00 0.00 0.00 0.00 0.00 0.00 0.01 0.00
0.53 0.40 0.32 0.32 0.40 0.38 0.26 0.20 0.26 0.60 0.29 0.00 0.00 0.00 0.00 0.00 0.00 0.00 0.00 0.00 0.00 0.00 0.00 0.00 0.00 0.00 0.00 0.00 0.00 0.00 0.00 0.00 0.00 0.00 0.00 0.00 0.00 0.00 0.00 0.00 0.00 0.00 0.00 0.00
0.61 0.52 0.37 0.30 0.36 0.47 0.55 0.31 0.07 0.10 0.12 0.01 0.00 0.00 0.00 0.00 0.00 0.00 0.00 0.00 0.00 0.00 0.00 0.00 0.00 0.00 0.00 0.00 0.00 0.00 0.00 0.00 0.00 0.00 0.00 0.00 0.00 0.00 0.00 0.00 0.00 0.00 0.00 0.00
0.63 0.63 0.44 0.32 0.36 0.69 1.00 0.31 0.03 0.03 0.02 0.00 0.01 0.00 0.00 0.00 0.00 0.00 0.00 0.00 0.00 0.00 0.00 0.00 0.00 0.00 0.00 0.00 0.00 0.00 0.00 0.00 0.00 0.00 0.00 0.00 0.00 0.00 0.00 0.00 0.00 0.00 0.00 0.00
0.59 0.60 0.46 0.35 0.38 1.08 1.40 0.31 0.01 0.08 0.05 0.01 0.01 0.00 0.00 0.00 0.00 0.00 0.00 0.00 0.00 0.00 0.00 0.00 0.00 0.00 0.00 0.00 0.00 0.00 0.00 0.00 0.00 0.00 0.00 0.00 0.00 0.00 0.00 0.00 0.00 0.00 0.00 0.00
0.55 0.51 0.36 0.36 0.39 0.79 0.74 0.19 0.07 0.25 0.12 0.04 0.00 0.00 0.00 0.00 0.00 0.00 0.00 0.00 0.00 0.00 0.00 0.01 0.00 0.00 0.00 0.01 0.01 0.00 0.00 0.00 0.00 0.00 0.00 0.00 0.00 0.00 0.00 0.00 0.00 0.00 0.00 0.00
0.51 0.46 0.30 0.27 0.26 0.33 0.44 0.17 0.19 0.37 0.23 0.03 0.01 0.00 0.00 0.00 0.00 0.00 0.00 0.00 0.00 0.01 0.01 0.03 0.03 0.02 0.02 0.01 0.01 0.01 0.01 0.00 0.00 0.00 0.00 0.00 0.00 0.00 0.00 0.00 0.00 0.00 0.00 0.00
0.46 0.40 0.30 0.23 0.16 0.16 0.32 0.29 0.39 0.54 0.41 0.06 0.01 0.02 0.00 0.01 0.01 0.02 0.04 0.03 0.01 0.01 0.05 0.03 0.02 0.02 0.01 0.00 0.00 0.00 0.00 0.01 0.00 0.00 0.00 0.00 0.00 0.00 0.00 0.00 0.00 0.00 0.00 0.00
0.47 0.34 0.27 0.19 0.10 0.09 0.29 0.39 0.71 0.76 0.52 0.17 0.06 0.02 0.01 0.01 0.02 0.03 0.04 0.07 0.06 0.03 0.07 0.05 0.01 0.01 0.01 0.01 0.00 0.00 0.00 0.00 0.00 0.00 0.01 0.00 0.00 0.00 0.00 0.02 0.04 0.00 0.00 0.00
0.48 0.31 0.25 0.14 0.07 0.08 0.29 0.37 0.70 0.81 0.48 0.18 0.17 0.09 0.03 0.01 0.01 0.01 0.01 0.10 0.07 0.09 0.10 0.04 0.02 0.01 0.00 0.01 0.00 0.00 0.00 0.00 0.00 0.00 0.00 0.01 0.00 0.00 0.01 0.02 0.02 0.00 0.00 0.00
0.44 0.30 0.21 0.12 0.09 0.12 0.29 0.33 0.53 0.78 0.73 0.31 0.20 0.10 0.04 0.00 0.00 0.01 0.01 0.02 0.01 0.02 0.04 0.02 0.04 0.01 0.00 0.00 0.00 0.00 0.00 0.00 0.00 0.01 0.00 0.00 0.00 0.02 0.02 0.01 0.01 0.00 0.00 0.00
0.36 0.29 0.22 0.16 0.15 0.18 0.28 0.29 0.43 1.25 0.95 0.47 0.15 0.08 0.10 0.05 0.02 0.02 0.03 0.00 0.01 0.03 0.03 0.05 0.04 0.03 0.00 0.00 0.00 0.00 0.00 0.00 0.00 0.01 0.00 0.00 0.01 0.01 0.01 0.00 0.00 0.00 0.00 0.01
0.36 0.29 0.22 0.15 0.15 0.21 0.33 0.27 0.73 1.63 1.24 0.95 0.42 0.09 0.10 0.09 0.08 0.01 0.01 0.02 0.03 0.05 0.06 0.07 0.07 0.04 0.01 0.00 0.00 0.00 0.00 0.01 0.01 0.01 0.00 0.00 0.01 0.01 0.00 0.00 0.01 0.01 0.01 0.00
0.36 0.27 0.18 0.13 0.16 0.28 0.35 0.31 0.85 1.17 1.15 1.06 0.72 0.16 0.09 0.13 0.14 0.10 0.03 0.01 0.00 0.02 0.10 0.08 0.03 0.02 0.02 0.02 0.01 0.00 0.00 0.00 0.02 0.01 0.01 0.01 0.03 0.02 0.01 0.02 0.02 0.02 0.00 0.00
0.30 0.21 0.16 0.13 0.22 0.46 0.53 0.83 0.70 0.85 0.78 1.08 0.86 0.49 0.12 0.17 0.22 0.41 0.16 0.07 0.04 0.05 0.06 0.05 0.02 0.01 0.03 0.02 0.00 0.00 0.00 0.00 0.01 0.01 0.01 0.03 0.02 0.01 0.00 0.00 0.00 0.00 0.00 0.00
0.25 0.22 0.17 0.21 0.32 0.62 0.67 0.91 0.68 0.54 0.78 0.94 0.77 0.58 0.31 0.27 0.32 0.35 0.43 0.25 0.29 0.15 0.11 0.04 0.01 0.02 0.05 0.02 0.01 0.00 0.00 0.00 0.01 0.00 0.02 0.03 0.01 0.01 0.00 0.00 0.00 0.00 0.00 0.00
0.29 0.28 0.24 0.30 0.50 0.82 0.50 0.60 0.54 0.66 0.83 0.76 0.67 0.47 0.46 0.27 0.58 0.30 0.34 0.31 0.45 0.45 0.20 0.05 0.01 0.04 0.07 0.03 0.00 0.00 0.00 0.00 0.00 0.01 0.02 0.01 0.01 0.00 0.00 0.00 0.00 0.00 0.01 0.04
0.31 0.33 0.43 0.71 1.00 1.01 0.61 0.65 0.86 0.80 0.75 0.74 0.36 0.31 0.35 0.36 0.55 0.71 0.33 0.32 0.28 0.26 0.34 0.29 0.13 0.03 0.02 0.01 0.00 0.00 0.00 0.00 0.01 0.00 0.00 0.00 0.00 0.00 0.00 0.00 0.02 0.06 0.17 0.22
0.52 0.71 1.02 1.15 0.97 0.78 0.86 0.92 0.98 0.79 0.38 0.27 0.26 0.16 0.13 0.33 0.36 0.63 0.86 0.54 0.25 0.16 0.21 0.24 0.29 0.21 0.09 0.02 0.00 0.00 0.00 0.00 0.01 0.01 0.01 0.02 0.02 0.02 0.03 0.06 0.13 0.21 0.18 0.08
1.22 1.39 1.28 1.07 1.01 0.84 0.90 0.88 0.89 0.58 0.24 0.08 0.09 0.09 0.09 0.12 0.45 0.47 0.40 0.47 0.58 0.27 0.14 0.18 0.24 0.18 0.09 0.05 0.04 0.05 0.06 0.06 0.05 0.04 0.03 0.04 0.07 0.15 0.27 0.28 0.19 0.11 0.10 0.13
1.37 1.25 1.10 1.16 1.21 0.93 0.87 0.99 0.65 0.32 0.10 0.04 0.06 0.05 0.06 0.12 0.21 0.52 0.49 0.36 0.33 0.35 0.20 0.17 0.11 0.06 0.09 0.18 0.20 0.18 0.15 0.13 0.12 0.12 0.17 0.22 0.25 0.26 0.14 0.08 0.08 0.11 0.13 0.14
1.33 1.25 1.37 1.45 1.46 1.41 1.07 0.64 0.28 0.15 0.05 0.05 0.06 0.05 0.06 0.09 0.13 0.33 0.58 0.71 0.46 0.21 0.24 0.28 0.21 0.15 0.15 0.15 0.11 0.11 0.11 0.13 0.19 0.23 0.20 0.13 0.09 0.11 0.12 0.15 0.16 0.13 0.11 0.08
1.19 1.35 1.47 1.46 1.29 0.86 0.63 0.30 0.15 0.18 0.15 0.10 0.08 0.08 0.10 0.12 0.20 0.41 0.64 0.72 0.47 0.45 0.29 0.22 0.26 0.37 0.43 0.27 0.16 0.11 0.08 0.07 0.08 0.09 0.09 0.10 0.12 0.13 0.13 0.10 0.07 0.04 0.02 0.01
0.66 0.54 0.77 0.77 0.67 0.56 0.45 0.32 0.29 0.28 0.31 0.34 0.37 0.44 0.35 0.36 0.57 0.61 0.44 0.42 0.40 0.35 0.36 0.43 0.43 0.40 0.36 0.16 0.08 0.08 0.10 0.12 0.13 0.12 0.09 0.09 0.09 0.06 0.05 0.03 0.01 0.00 0.00 0.00
0.27 0.45 0.62 0.58 0.50 0.51 0.47 0.39 0.38 0.36 0.42 0.43 0.44 0.46 0.45 0.59 0.51 0.39 0.39 0.36 0.40 0.44 0.28 0.22 0.20 0.21 0.21 0.21 0.17 0.14 0.15 0.13 0.11 0.09 0.07 0.06 0.04 0.02 0.00 0.00 0.00 0.00 0.00 0.00
0.26 0.55 0.62 0.49 0.41 0.43 0.43 0.35 0.33 0.26 0.25 0.30 0.22 0.26 0.32 0.33 0.34 0.37 0.35 0.43 0.38 0.33 0.30 0.24 0.23 0.25 0.19 0.18 0.21 0.21 0.18 0.12 0.07 0.06 0.04 0.03 0.01 0.00 0.00 0.00 0.00 0.00 0.00 0.00